User: anonymous   Login
Location: Henham
(51.9333°N, 0.2500°E)
Time: 14:51:41
(UTC+00:00)
Language:

ARGOS - Orbit

View from above orbital plane
View from above orbital plane
View from above satellite
View from above satellite

Ground track
Ground track

The orbit data is extracted from the following two-line orbital elements,

1 25634U 99008A   21019.94910306 -.00000040  00000-0  68325-6 0  9996
2 25634  98.4369  54.8063 0010425  16.5609 343.5906 14.19386583134192
Epoch (UTC): 19 January 2021 22:46:42
Eccentricity: 0.0010425
inclination: 98.4369°
perigee height: 820 km
apogee height: 835 km
right ascension of ascending node: 54.8063°
argument of perigee: 16.5609°
revolutions per day: 14.19386583
mean anomaly at epoch: 343.5906°
orbit number at epoch: 13419

The dashed part of the orbit path shows where the satellite is in the earth's shadow,  

DLR